{"data":{"norad_id":65351,"epoch":"2026-09-20T11:26:13.703136Z","epoch_age_seconds":119832,"freshness":"FRESH","line1":"1 65351U 25190A   26263.47654749  .00026154  00000+0  78235-3 0  9997","line2":"2 65351  53.1612 339.4907 0000896  92.3327 267.7778 15.34406605 59635","mean_motion":15.34406605,"eccentricity":8.96e-5,"inclination_deg":53.1612,"raan_deg":339.4907,"arg_perigee_deg":92.3327,"mean_anomaly_deg":267.7778,"bstar":0.00078235,"rev_number":5963,"period_min":93.847354104683,"perigee_km":462.07067129903,"apogee_km":463.29654635214,"semimajor_km":6840.8206088256,"source":"CELESTRAK","updated_at":"2026-09-21T09:00:35.574909Z"}}